Home   Weather   Gothenburg   Past weeks

Flag for Sweden Past Weather in Gothenburg, Sweden — Yesterday and Last 2 Weeks

39 °F

Drizzle. Mostly cloudy.

Feels Like: 31 °F
Forecast: 42 / 47 °F
Wind: 15 mph from Northeast

Location: Gothenburg / Save

Current Time: Oct 22, 2016 at 9:48:52 PM

Latest Report: Oct 22, 2016 at 9:20 PM

Visibility: N/A

Pressure: 30.12 "Hg

Humidity: 87%

Dew Point: 36 °F

Location of GothenburgLocation

Past Weather in Gothenburg — Graph


Gothenburg Temperature Yesterday

Maximum temperature yesterday: 48 °F (at 2:20 PM)
Minimum temperature yesterday: 43 °F (at 12:20 AM)
Average temperature yesterday: 44 °F

High & Low Weather Summary for the Past Weeks

High52 °F (Oct 9, 2:20 PM)100% (Oct 17, 8:50 AM)30.48 "Hg (Oct 17, 8:50 AM)
Low32 °F (Oct 14, 4:50 AM)54% (Oct 15, 3:20 PM)30.01 "Hg (Oct 19, 5:50 AM)
Average45 °F80%30.29 "Hg
* Reported Oct 7 8:20 PM — Oct 22 8:20 PM, Gothenburg, Weather by CustomWeather, © 2016

Note: Actual official high and low records may vary slightly from our data, if they occured in-between our weather recording intervals... More about our weather records


Gothenburg Weather History for the Previous 24 Hours

Scroll right to see more
Time TempWeatherWind HumidityBarometerVisibility
8:20 PM
Sat, Oct 22
39 °FOvercast.16 mph87%30.12 "HgN/A
7:50 PM39 °FMostly cloudy.18 mph87%30.12 "HgN/A
7:20 PM39 °FOvercast.16 mph87%30.12 "HgN/A
6:50 PM39 °FOvercast.15 mph87%30.12 "HgN/A
6:20 PM39 °FOvercast.15 mph87%30.12 "HgN/A
5:50 PM39 °FOvercast.16 mph87%30.12 "HgN/A
5:20 PM39 °FOvercast.17 mph87%30.12 "HgN/A
4:50 PM39 °FDrizzle. Overcast.17 mph87%30.12 "HgN/A
4:20 PM39 °FDrizzle. Overcast.16 mph87%30.12 "HgN/A
3:50 PM39 °FDrizzle. Overcast.16 mph87%30.12 "HgN/A
3:20 PM39 °FDrizzle. Overcast.16 mph87%30.12 "HgN/A
2:50 PM39 °FDrizzle. Mostly cloudy.14 mph87%30.12 "HgN/A
2:20 PM39 °FDrizzle. Partly sunny.15 mph87%30.12 "Hg6 mi
1:50 PM39 °FDrizzle. Partly sunny.16 mph87%30.12 "Hg6 mi
1:20 PM39 °FDrizzle. Overcast.16 mph87%30.12 "HgN/A
12:50 PM39 °FDrizzle. Partly sunny.17 mph87%30.15 "HgN/A
12:20 PM39 °FDrizzle. Partly sunny.15 mph87%30.15 "HgN/A
11:50 AM39 °FLight rain. Partly sunny.15 mph87%30.15 "Hg6 mi
11:20 AM39 °FLight rain. Partly sunny.13 mph87%30.15 "Hg5 mi
10:50 AM39 °FDrizzle. Partly sunny.15 mph87%30.15 "Hg5 mi
10:20 AM39 °FLight rain. Broken clouds.17 mph87%30.15 "Hg4 mi
9:50 AM39 °FLight rain. Partly sunny.16 mph87%30.15 "Hg4 mi
9:20 AM41 °FDrizzle. Partly sunny.15 mph81%30.15 "Hg5 mi
8:50 AM41 °FDrizzle. Partly sunny.14 mph81%30.12 "Hg6 mi
8:20 AM41 °FDrizzle. Partly sunny.13 mph81%30.12 "Hg6 mi
7:50 AM41 °FFog.14 mph81%30.12 "Hg6 mi
7:20 AM41 °FDrizzle. Overcast.16 mph87%30.12 "HgN/A
6:50 AM41 °FOvercast.14 mph87%30.12 "HgN/A
6:20 AM41 °FOvercast.15 mph87%30.15 "HgN/A
5:50 AM41 °FOvercast.15 mph87%30.15 "HgN/A
5:20 AM41 °FMostly cloudy.16 mph87%30.15 "HgN/A
4:50 AM41 °FMostly cloudy.14 mph87%30.15 "HgN/A
4:20 AM41 °FMostly cloudy.15 mph87%30.15 "HgN/A
3:50 AM41 °FOvercast.13 mph87%30.15 "HgN/A
3:20 AM41 °FMostly cloudy.14 mph87%30.18 "HgN/A
2:50 AM43 °FMostly cloudy.14 mph81%30.18 "HgN/A
2:20 AM43 °FOvercast.12 mph81%30.18 "HgN/A
1:50 AM43 °FMostly cloudy.15 mph81%30.18 "HgN/A
1:20 AM43 °FOvercast.12 mph81%30.18 "HgN/A
12:50 AM43 °FOvercast.13 mph81%30.18 "HgN/A
12:20 AM43 °FOvercast.14 mph81%30.18 "HgN/A
11:50 PM
Fri, Oct 21
43 °FOvercast.13 mph81%30.18 "HgN/A
11:20 PM43 °FMostly cloudy.14 mph81%30.18 "HgN/A
10:50 PM43 °FOvercast.12 mph81%30.18 "HgN/A
10:20 PM43 °FMostly cloudy.13 mph87%30.18 "HgN/A
9:50 PM43 °FPassing clouds.10 mph87%30.18 "HgN/A
9:20 PM43 °FPassing clouds.12 mph87%30.18 "Hg6 mi
Weather by CustomWeather, © 2016

See weather overviewHow to use our weather pages